Regional Weather Roundup
Issued by NWS Glasgow, MT

Home | Current Version | Previous Version | Text Only | Print | Product List | Glossary On
Versions: 1 2 3 4 5 6 7 8 9 10 11 12 13 14 15 16 17 18 19 20 21 22 23 24 25 26 27 28 29 30 31 32 33 34 35 36 37 38 39 40 41 42 43 44 45 46 47 48 49 50
000
ASUS45 KGGW 290215
RWRGGW
HOURLY REGIONAL WEATHER ROUNDUP FOR NORTHEAST MONTANA
NATIONAL WEATHER SERVICE GLASGOW MONTANA
800 PM MDT THU APR 28 2016

NOTE: "FAIR" INDICATES FEW OR NO CLOUDS BELOW 12,000 FEET WITH NO
SIGNIFICANT WEATHER AND/OR OBSTRUCTIONS TO VISISBILITY.

NORTHEAST MONTANA


CITY           SKY/WX    TMP DP  RH WIND       PRES   REMARKS
GLASGOW        CLOUDY    48  31  51 S6        30.12R
PLENTYWOOD       N/A     53  16  23 E12G20      N/A
WOLF POINT     CLOUDY    53  28  38 SE7       30.13S
JORDAN           N/A     43  34  70 S13       30.12R
WINNETT          N/A     42  35  76 E6          N/A
SIDNEY         CLOUDY    48  30  49 CALM      30.15R
GLENDIVE       CLOUDY    46  34  61 S7        30.15S
SCOBEY           N/A     52  19  27 E10       30.12R
OPHEIM           N/A     48  21  34 CALM      30.04

FORT PECK REPORTS


CITY           SKY/WX    TMP DP  RH WIND       PRES   REMARKS
FORT PECK        N/A     49  32  52 E12G20      N/A
THE PINES        N/A     48  30  49 SE5G13      N/A

SOUTHEAST MONTANA


CITY           SKY/WX    TMP DP  RH WIND       PRES   REMARKS
BILLINGS       PTCLDY    38  35  89 NE6       30.08S
MILES CITY     CLOUDY    43  34  70 SE8       30.13R
BAKER          CLOUDY    40  33  76 S7        30.14R
LIVINGSTON     CLOUDY    37  27  67 E17       30.03R

CENTRAL MONTANA


CITY           SKY/WX    TMP DP  RH WIND       PRES   REMARKS
HAVRE          MOCLDY    49  34  56 SE8       30.09S
LEWISTOWN      CLOUDY    38  31  76 E12       30.08F
GREAT FALLS    CLOUDY    40  32  73 E8        30.06S
CUT BANK       CLOUDY    42  34  73 SW3       30.07F
HELENA         CLOUDY    43  33  68 N8        30.01S
BUTTE          CLOUDY    34  31  88 W3        29.98S
BOZEMAN        CLOUDY    40  27  59 E10       29.99S

WESTERN MONTANA


CITY           SKY/WX    TMP DP  RH WIND       PRES   REMARKS
MISSOULA       CLOUDY    49  28  44 SE9       30.00F
KALISPELL      NOT AVBL

NORTH DAKOTA


CITY           SKY/WX    TMP DP  RH WIND       PRES   REMARKS
WILLISTON      CLOUDY    52  19  27 SE8       30.15R
DICKINSON      CLOUDY    46  27  47 NE9       30.10R
MINOT          CLOUDY    49  22  34 N6        30.14S
BISMARCK       CLOUDY    50  29  44 NE7       30.13R

SOUTHERN SASKATCHEWAN


CITY           SKY/WX    TMP DP  RH WIND       PRES   REMARKS
REGINA         CLOUDY    55  18  22 E15       30.17S
ESTEVAN        CLOUDY    48  18  29 E9        30.17R
SWIFT CURRENT  MOCLDY    52  21  30 SE9       30.12S




USA.gov is the U.S. government's official web portal to all federal, state and local government web resources and services.